Regional Weather Roundup
Issued by NWS Sioux Falls, SD

Home | Current Version | Previous Version | Graphics & Text | Print | Product List | Glossary On
Versions: 1 2 3 4 5 6 7 8 9 10 11 12 13 14 15 16 17 18 19 20 21 22 23 24 25 26 27 28 29 30 31 32 33 34 35 36 37 38 39 40 41 42 43 44 45 46 47 48 49 50
000
ASUS43 KFSD 242010
RWRFSD

WEATHER ROUNDUP FOR SE SOUTH DAKOTA/SW MINNESOTA/NW IOWA
NATIONAL WEATHER SERVICE SIOUX FALLS SD
300 PM CDT FRI APR 24 2015

NOTE: "FAIR" INDICATES FEW OR NO CLOUDS BELOW 12,000 FEET WITH NO
SIGNIFICANT WEATHER AND OR OBSTRUCTIONS TO VISIBILITY.


SDZ038>040-050-052>070-242100-
SOUTHEAST SOUTH DAKOTA

CITY           SKY/WX    TMP DP  RH WIND       PRES   REMARKS
BROOKINGS      PTSUNNY   66  48  52 SE16      29.60F
CHAMBERLAIN    SUNNY     75  44  32 N5        29.48F
HURON          MOSUNNY   74  48  39 SE13      29.51F
MADISON        FAIR      66  48  52 S16G22    29.58F
MITCHELL       MOSUNNY   75  48  38 S10       29.52F
SIOUX FALLS    CLOUDY    68  50  52 SE13      29.58F
WINNER         FAIR      76  42  29 SW5       29.50F
YANKTON        MOSUNNY   75  50  41 S12G20    29.53F
$$

MNZ071-072-080-081-089-090-097-098-242100-
SOUTHWEST MINNESOTA

CITY           SKY/WX    TMP DP  RH WIND       PRES   REMARKS
FAIRMONT       CLOUDY    45  10  24 SE24      29.71F
JACKSON        CLOUDY    46  43  87 SE18G25   29.71F
LUVERNE        CLOUDY    61  50  67 SE16      29.63F
MARSHALL       CLOUDY    55  41  58 SE20      29.66F
MONTEVIDEO     PTSUNNY   54  45  71 S21G26    29.70S
REDWOOD FALLS  CLOUDY    49  41  74 SE20G28   29.72F
TRACY          CLOUDY    54  45  71 SE13      29.68F
WINDOM         CLOUDY    48  45  87 SE16      29.70F
WORTHINGTON    CLOUDY    52  45  76 SE21G26   29.66F
$$

IAZ001>003-012>014-020>022-031-032-NEZ013-014-SDZ071-242100-
NORTHWEST IOWA

CITY           SKY/WX    TMP DP  RH WIND       PRES   REMARKS
CHEROKEE       MOSUNNY   65  51  60 SE12G17   29.64F
DENISON        MOSUNNY   68  54  60 S14       29.62F
ESTHERVILLE    CLOUDY    49  46  90 SE21      29.72F
LE MARS        SUNNY     72  54  53 S16       29.60F
ORANGE CITY    MOSUNNY   68  52  56 S14G20    29.61F
SHELDON        PTSUNNY   66  50  55 SE15G25   29.62F
SIOUX CITY     MOSUNNY   76  51  41 SE10G20   29.59F
SPENCER        MOSUNNY   57  48  72 SE15G26   29.68F
STORM LAKE     SUNNY     61  50  67 SE15G22   29.67F
$$

ABBREVIATIONS USED IN REMARKS
   TC - TEMPERATURE IN CELSIUS
  WCI - WIND CHILL INDEX
   HX - HEAT INDEX
  VSB - VISIBILITY



USA.gov is the U.S. government's official web portal to all federal, state and local government web resources and services.